Vorticity
15 15 15 14 9 4 3 4 5 6 6 4 6 9 13 15 15 13 10 8 7 8 9 9 9 11 10 8 8 8 7 6 5 5 5 7 8 8 8 10 13 13 10 6 5 6 7 8 8 8 9 10 10 10 9 9 8 8 8 8 8 9 10 8 7 8 7 7 8 8 10 10 10 11 10 12 13 12 11 9 9 9 8 7 6 6 6 5
15 15 16 17 15 12 12 12 11 11 11 11 13 16 16 15 12 9 8 7 8 9 9 9 10 11 9 8 9 8 7 6 5 5 7 8 8 8 11 12 11 8 5 6 8 8 9 10 10 10 11 11 10 10 10 8 7 7 7 7 7 7 8 8 6 6 7 6 6 6 9 9 9 10 10 11 12 11 12 11 10 10 9 9 8 7 7 6
16 15 15 15 16 16 15 15 15 15 15 16 17 16 14 11 9 8 7 8 10 9 8 10 11 9 7 8 9 9 8 5 5 6 8 8 8 11 11 8 6 6 7 9 9 9 11 9 7 7 7 6 6 6 6 6 6 6 6 4 5 4 4 7 6 4 5 5 5 4 6 7 6 8 9 9 11 11 11 12 12 12 9 10 11 9 9 8
17 14 12 12 14 14 15 16 16 16 16 16 14 13 11 9 9 8 7 10 10 8 9 10 10 7 7 9 10 9 7 6 7 8 9 10 11 11 7 6 9 10 9 10 8 7 8 5 5 6 5 5 6 6 6 6 6 5 6 4 2 3 2 3 6 5 2 3 5 4 4 6 5 5 8 7 10 11 10 11 11 12 11 10 11 11 10 9
13 11 12 14 16 16 16 16 16 16 15 14 12 11 10 9 9 7 7 10 9 9 10 9 8 8 9 10 10 8 8 10 10 10 10 10 10 8 7 9 11 8 7 7 5 5 5 6 7 6 6 5 4 5 5 5 5 4 5 6 4 4 1 0 3 5 4 2 3 5 3 5 6 4 7 6 8 11 10 10 11 12 13 11 10 10 10 9
14 15 17 17 17 16 16 15 14 13 11 10 9 9 8 8 8 7 8 9 10 10 10 10 9 10 10 10 10 10 12 11 9 10 10 8 8 7 8 9 7 5 6 6 6 7 7 8 7 7 7 6 5 4 3 2 4 3 3 4 6 6 4 2 2 2 6 5 1 3 4 5 7 4 6 7 6 10 11 10 10 11 13 11 10 10 10 9
17 17 17 16 15 14 12 11 10 9 9 9 9 11 11 11 10 8 8 9 10 10 10 10 10 9 9 10 11 12 11 10 9 9 8 6 7 7 7 7 6 6 6 7 8 8 8 7 7 6 5 5 5 5 3 2 3 2 1 2 3 4 4 3 3 0 2 7 3 2 3 4 6 5 6 8 7 9 10 11 10 11 11 10 10 10 11 11
15 14 13 12 10 8 8 8 8 9 10 11 13 16 19 21 19 15 11 10 10 10 11 11 9 9 9 11 12 11 10 10 9 8 6 6 6 7 7 7 7 7 6 5 6 5 5 5 4 4 3 3 3 3 3 2 2 1 1 2 1 1 3 2 2 0 -1 3 4 2 2 3 4 5 6 7 7 8 9 10 10 10 9 8 9 10 11 11
11 10 9 8 7 8 9 10 11 12 13 15 19 24 30 33 33 27 14 10 13 13 13 12 10 11 12 13 11 10 10 7 7 7 7 7 7 7 6 5 5 5 5 5 5 5 5 4 3 3 2 2 1 1 2 1 2 1 0 1 1 0 1 2 1 1 -0 1 3 2 2 3 4 5 5 7 7 8 8 9 9 9 7 7 7 8 9 10
8 8 9 9 10 11 11 12 13 15 17 20 24 28 32 34 34 29 18 15 19 17 14 14 14 14 13 11 9 10 7 5 7 8 7 6 5 5 4 4 4 5 6 6 6 5 5 4 3 3 3 4 3 2 2 1 2 2 2 1 1 1 1 1 1 2 1 0 2 2 2 3 4 4 4 6 7 7 8 8 8 8 7 7 6 6 7 8
10 10 11 11 11 11 11 13 14 16 18 19 20 21 22 24 26 26 23 20 20 17 15 15 13 11 10 7 7 10 6 4 7 6 5 5 4 4 4 5 6 7 6 6 5 3 3 3 3 3 3 3 2 2 2 1 0 1 2 2 1 2 2 3 2 2 2 0 2 2 2 2 4 4 4 5 6 8 8 7 7 7 8 7 6 6 6 6
10 10 10 10 9 10 11 12 14 15 15 15 13 12 13 14 17 19 19 17 15 13 12 10 9 8 7 5 8 10 6 6 6 5 6 5 5 5 6 6 7 7 5 5 5 4 4 4 4 3 2 2 1 1 2 1 2 1 1 2 2 2 3 4 3 4 4 3 3 2 2 2 4 4 3 4 5 7 7 7 6 5 7 7 7 7 7 7
9 8 9 9 9 9 10 11 12 12 12 11 9 9 9 8 10 10 10 10 9 8 8 7 7 6 5 6 9 9 6 7 6 5 6 5 6 6 7 7 7 7 6 6 5 4 4 4 3 3 2 2 2 2 2 2 3 2 2 1 2 3 3 3 3 3 4 4 3 3 2 2 4 4 4 4 3 5 6 6 7 5 5 5 6 6 6 7
8 8 9 9 10 10 11 11 9 9 9 9 8 7 6 6 7 7 7 7 7 7 7 8 7 5 7 9 9 7 6 7 6 6 6 6 7 7 7 7 7 7 5 5 5 3 4 3 3 2 2 2 1 2 2 1 1 2 3 2 2 2 3 3 3 3 3 3 3 2 3 2 3 4 5 4 3 4 4 4 6 7 6 5 5 5 5 6
9 10 10 10 11 12 12 12 10 10 9 9 9 8 8 8 8 8 8 8 8 8 6 8 6 4 8 8 6 6 5 5 5 6 6 6 6 6 7 6 6 6 5 5 4 4 4 3 2 2 2 3 2 1 1 1 1 1 2 3 3 2 3 3 3 4 3 3 4 3 3 3 3 3 5 5 3 4 4 4 4 6 7 6 5 5 5 5
11 11 12 12 12 12 11 11 11 10 10 10 10 9 9 9 9 9 8 8 8 7 6 6 5 5 8 7 4 5 4 5 6 5 6 6 5 5 5 5 5 4 4 3 3 4 3 2 3 2 2 3 3 2 3 3 2 1 0 2 2 2 2 2 2 3 3 3 3 3 3 4 4 3 5 6 3 4 5 4 4 4 5 5 5 5 5 5
12 12 12 12 11 11 10 9 9 8 8 8 8 9 10 8 8 8 8 7 5 7 7 4 4 8 7 4 5 6 5 6 6 5 5 5 4 5 4 4 4 3 3 3 3 3 3 3 2 2 2 2 3 3 4 4 3 3 1 1 2 2 2 2 3 2 2 3 2 3 3 4 5 2 5 7 3 4 6 5 4 3 5 5 4 4 4 5
10 10 9 8 8 8 8 8 8 8 7 7 6 7 8 7 6 6 7 4 3 7 7 4 7 9 3 3 7 7 6 6 5 5 4 4 5 5 5 4 4 5 4 3 3 3 3 3 3 3 3 3 4 3 3 3 3 3 3 2 2 3 2 1 2 2 2 3 3 4 3 4 6 2 4 8 3 3 5 5 5 4 5 5 5 5 4 4
6 6 6 6 7 7 7 7 7 7 7 7 7 4 3 5 4 5 7 5 6 8 7 6 8 6 4 6 7 6 6 6 5 5 5 6 6 6 6 5 6 6 5 4 5 5 4 3 4 5 3 3 4 3 4 3 4 4 4 4 2 3 4 3 3 3 3 3 3 5 3 4 7 4 4 7 4 3 6 6 6 4 4 5 5 5 4 4
6 6 6 6 6 6 6 6 6 7 6 5 6 5 3 3 5 7 7 8 9 9 9 9 6 4 6 7 5 5 5 4 4 4 4 4 5 6 6 6 7 6 6 5 4 5 4 3 5 4 3 3 2 2 3 4 4 4 4 4 3 2 4 3 3 3 3 3 4 6 4 3 7 5 4 6 3 3 6 7 7 5 4 5 6 6 5 4
6 6 6 7 7 6 6 5 6 6 5 5 5 6 4 4 8 7 5 9 10 10 10 7 4 5 6 6 5 4 3 3 2 2 3 3 4 6 6 6 6 6 6 6 6 5 3 4 5 4 4 3 3 3 2 3 3 4 4 3 4 3 3 3 3 3 3 4 3 6 6 4 6 5 4 6 3 3 7 7 6 5 4 6 6 7 6 4
7 7 6 6 6 6 5 5 6 5 5 6 6 7 6 7 10 4 2 9 10 7 6 4 4 6 5 5 4 3 2 3 3 2 3 4 3 4 6 5 5 6 7 7 7 5 3 4 4 4 4 3 3 3 2 3 3 3 4 3 3 3 3 3 3 3 3 3 3 4 8 7 4 4 5 4 2 3 7 6 6 6 5 5 5 6 6 5
7 7 5 4 4 5 5 5 5 6 7 8 9 8 7 7 6 2 3 9 9 5 5 5 5 5 5 5 5 3 3 4 4 4 4 4 3 4 5 5 5 6 7 7 6 6 6 4 5 5 4 3 4 3 3 3 3 3 3 3 3 2 3 3 2 3 2 3 4 2 8 11 3 3 7 6 4 4 7 6 6 6 6 5 5 5 6 7
6 6 5 4 4 5 6 7 7 7 7 7 7 6 4 3 3 4 4 5 6 5 6 6 5 6 6 6 6 4 4 6 5 5 5 4 4 4 4 4 5 5 6 7 5 6 8 5 6 6 3 4 4 4 4 4 4 4 3 3 2 2 3 2 3 4 3 5 6 1 5 8 1 1 6 4 2 3 5 6 5 5 5 5 6 6 6 7
7 6 5 4 5 6 7 7 6 6 4 4 4 3 2 2 2 2 1 2 5 4 5 6 5 6 5 6 6 5 6 8 7 6 5 5 5 4 5 4 4 5 6 6 5 6 7 6 7 7 4 4 3 3 4 3 3 3 3 3 2 3 3 2 4 4 4 6 6 5 5 4 3 3 5 5 2 2 6 7 5 4 5 7 8 6 6 7
7 6 5 4 5 6 6 6 5 4 4 3 3 3 2 1 2 1 2 4 6 5 5 6 5 6 7 7 8 6 7 7 7 9 7 5 6 4 5 5 3 5 5 4 5 5 5 6 8 7 6 5 4 4 3 2 3 3 3 3 2 3 3 3 5 3 5 7 6 8 5 5 8 3 2 7 4 4 7 7 4 4 5 6 8 8 7 6
6 5 4 5 5 6 5 5 4 3 3 3 2 3 3 3 5 5 5 6 7 7 6 6 7 9 9 8 10 9 9 9 7 9 9 6 5 5 5 5 4 5 4 3 5 4 5 6 6 6 6 7 6 5 4 3 4 4 4 4 3 4 4 4 5 3 5 7 7 8 4 6 10 2 -0 5 2 3 7 5 4 4 4 6 8 9 7 5
5 5 5 6 5 4 4 3 4 4 4 5 5 6 7 8 8 7 7 7 8 8 7 7 7 9 9 8 9 8 7 9 5 6 9 5 4 6 5 4 5 4 3 4 4 3 4 5 5 6 7 7 7 6 6 5 5 5 4 4 4 5 4 3 5 4 5 7 7 6 4 5 8 4 2 4 2 4 6 5 5 4 5 5 6 8 7 7
6 5 5 5 3 2 3 3 5 6 7 8 8 7 7 8 9 8 7 6 7 7 6 7 5 4 7 6 6 5 5 7 4 4 7 3 3 5 4 5 4 3 4 4 4 3 4 5 5 6 6 6 7 7 7 5 5 6 4 4 4 4 3 3 6 5 5 7 4 4 6 4 8 6 1 4 6 5 7 9 6 4 6 6 5 7 8 9
5 5 4 3 4 4 4 4 5 6 6 6 6 6 7 6 5 7 7 2 3 5 4 5 5 4 5 5 5 4 5 5 4 5 5 3 5 5 4 6 3 3 6 4 4 3 4 6 5 6 6 7 8 7 7 6 7 7 6 5 4 3 4 4 5 5 5 5 2 3 4 4 11 9 0 5 8 5 10 10 5 4 7 9 8 7 7 9
5 5 5 4 5 5 5 6 5 4 4 3 2 3 5 5 1 2 6 2 0 4 3 3 5 4 4 5 4 4 4 4 4 5 4 2 5 5 4 4 2 4 6 2 3 4 5 6 5 5 7 7 8 7 7 8 8 8 8 7 5 4 4 3 4 3 3 2 1 3 3 6 13 7 1 6 5 7 12 8 1 2 6 10 9 5 4 7
6 6 6 5 4 4 5 5 5 4 3 2 2 0 2 5 2 1 4 4 1 2 2 2 3 3 2 2 2 3 3 3 4 4 2 2 5 3 2 3 2 4 4 1 4 5 5 6 6 7 8 8 8 8 9 9 8 7 6 6 7 7 6 4 3 1 1 1 1 3 2 7 13 6 2 5 5 10 12 5 2 1 4 9 8 6 5 6
6 6 7 6 4 4 5 5 4 4 3 2 3 3 3 5 5 3 5 5 3 2 2 3 3 3 2 2 3 3 2 3 5 3 1 3 4 2 2 3 4 4 3 3 5 5 5 6 6 6 7 8 8 9 10 9 7 5 4 5 7 9 10 8 5 3 3 2 2 4 4 8 14 8 2 7 12 14 9 3 1 -1 3 9 9 8 6 6
4 4 6 6 5 4 5 4 4 5 5 4 3 4 3 4 5 4 4 4 3 3 4 3 4 4 2 3 5 3 2 4 4 3 3 5 4 3 4 5 5 5 3 5 6 5 5 7 7 8 9 9 10 10 10 8 7 5 4 4 5 6 7 7 8 7 6 4 2 3 3 5 12 9 7 15 18 11 5 3 0 -2 2 9 13 12 7 8
3 3 4 4 4 4 4 3 3 3 4 5 4 4 3 3 4 3 3 4 4 3 4 4 5 5 2 4 6 4 4 5 4 5 6 6 5 5 6 6 6 6 6 7 6 5 6 8 9 11 10 10 11 9 8 7 7 6 5 4 5 4 3 5 6 5 6 5 3 4 2 1 10 13 16 25 21 6 1 2 2 -0 1 9 19 16 7 9
4 4 4 4 4 4 4 3 4 4 4 5 4 4 5 4 4 4 4 4 4 4 5 5 4 5 5 6 7 5 6 7 6 7 7 6 6 7 8 8 7 8 8 8 8 8 8 7 10 12 11 11 9 8 8 6 6 7 5 5 5 5 6 6 4 4 5 3 3 5 3 2 9 11 14 23 17 1 -2 5 5 -1 -2 11 20 14 7 10
5 4 4 5 5 5 6 6 6 5 5 6 4 4 7 5 4 5 5 4 6 6 6 6 6 7 8 8 8 7 7 7 7 8 7 7 8 9 8 8 8 8 9 8 9 10 9 6 8 10 8 7 6 6 6 5 5 6 5 6 6 6 8 6 4 7 7 4 3 4 3 5 10 11 10 10 3 -4 2 8 2 -7 -1 14 17 10 11 14
7 5 3 5 5 4 5 6 5 5 5 5 4 5 7 6 5 7 8 7 8 9 8 8 8 9 9 8 8 8 8 7 8 7 7 7 8 8 6 6 7 7 7 7 7 7 7 6 5 4 4 3 4 6 6 5 5 5 6 8 7 8 9 7 7 8 8 8 7 7 7 5 8 12 8 -0 -2 2 6 1 -7 -6 8 17 12 10 16 18
7 6 3 4 5 4 4 5 5 6 6 6 7 9 10 9 10 10 10 10 10 9 8 8 8 7 7 6 6 6 6 5 5 5 6 6 5 5 4 5 5 5 5 5 5 6 7 7 5 3 3 3 5 6 6 6 6 7 8 7 6 7 6 6 8 7 9 11 8 11 10 4 11 16 7 1 6 8 2 -5 -3 8 17 16 12 14 18 15
6 7 5 4 6 7 7 7 8 9 9 10 10 10 9 9 9 8 7 7 6 6 5 5 5 4 4 4 3 3 3 4 4 4 4 4 3 3 3 3 3 3 3 4 6 6 5 5 4 3 3 4 6 7 6 7 7 7 6 5 6 7 7 9 8 6 10 8 7 14 8 5 18 17 5 8 9 3 1 1 8 17 18 15 16 17 13 11
7 8 7 7 8 10 9 8 9 8 7 7 6 6 6 5 4 4 4 5 4 4 4 4 4 4 3 4 4 4 3 3 4 3 3 4 3 3 4 3 2 3 3 4 3 3 3 4 4 3 2 3 3 4 6 7 6 5 6 7 7 7 9 12 10 11 10 4 9 14 2 7 21 13 6 11 6 3 9 9 12 18 17 16 18 15 9 9
8 7 8 7 7 7 6 5 5 4 4 4 4 4 5 4 4 5 5 5 5 5 5 4 4 4 4 4 4 5 5 6 8 10 10 11 11 11 11 10 9 9 8 7 6 6 6 5 5 4 3 4 6 7 7 5 3 5 8 10 9 10 12 12 13 15 11 9 17 11 -2 11 23 12 10 11 4 9 14 9 13 18 16 17 16 11 8 8
5 5 6 5 4 4 4 4 5 4 4 6 6 6 5 6 6 5 5 5 5 5 5 6 7 9 11 13 15 18 20 20 22 24 23 24 24 24 24 22 21 19 16 15 14 13 11 11 12 11 7 5 3 3 3 2 1 5 9 13 17 17 15 12 12 11 11 17 19 7 3 18 21 12 11 9 4 12 14 10 13 15 14 16 12 9 9 7
3 4 5 4 5 5 5 5 4 5 5 6 6 4 5 5 5 4 5 8 10 12 14 17 20 22 23 24 25 24 23 21 19 18 17 18 19 21 23 24 26 26 26 24 21 19 18 18 18 19 19 18 15 11 8 7 7 8 12 17 17 13 10 9 8 7 11 13 8 6 11 13 12 12 10 6 9 13 13 12 14 15 16 14 10 10 10 7
5 6 5 5 5 5 5 5 5 5 4 4 5 5 7 9 11 13 16 19 21 21 22 21 19 18 16 14 12 9 7 7 5 4 5 7 7 9 12 14 18 21 24 27 27 24 23 20 19 20 24 31 34 30 25 23 20 17 18 18 13 11 13 13 11 10 10 7 6 13 12 3 8 16 10 10 15 13 13 14 14 14 11 9 10 12 9 7
6 5 5 6 4 5 6 5 5 6 6 8 12 14 17 19 20 21 20 20 17 13 11 9 6 6 5 3 3 2 2 3 3 1 2 3 2 3 6 9 11 12 14 19 23 25 26 25 21 19 18 20 20 18 18 20 20 20 22 21 17 18 20 16 13 12 10 10 12 15 9 4 14 17 10 12 13 9 11 12 9 8 4 3 8 9 7 6
5 4 5 6 5 6 8 8 10 14 15 18 19 19 19 18 16 14 11 8 4 2 3 2 2 4 4 3 5 3 2 5 5 1 2 3 1 2 5 8 10 10 11 14 17 19 23 23 20 19 21 20 14 13 15 14 15 20 20 15 13 15 15 11 9 9 9 11 12 11 9 8 11 9 6 10 9 8 11 7 4 5 3 3 7 8 7 6
6 7 7 9 11 13 15 16 18 19 19 19 17 15 13 11 7 4 2 2 1 1 3 2 2 5 4 4 5 3 2 5 4 1 2 4 3 2 4 6 9 10 10 12 14 15 18 21 20 20 25 24 14 12 14 10 13 17 9 6 13 15 11 8 7 8 9 10 9 6 4 4 5 6 7 8 8 6 5 2 2 4 4 8 11 9 6 4
11 13 13 15 17 18 18 19 18 17 15 13 11 9 6 5 4 1 1 3 2 2 4 2 3 4 3 4 5 4 3 4 4 3 4 5 4 3 4 6 8 11 9 9 12 13 15 19 19 18 26 29 17 9 12 10 13 19 15 15 18 12 4 4 5 7 11 12 8 4 4 9 11 10 9 10 10 8 7 5 4 6 9 13 11 5 4 10
16 17 16 17 18 16 17 16 13 12 11 7 5 5 2 2 3 2 2 4 3 3 4 3 3 4 3 5 7 6 6 6 5 6 6 6 5 4 5 7 10 10 7 8 11 12 13 17 17 16 24 29 21 15 18 16 14 21 22 16 9 5 6 11 11 10 10 9 7 6 9 11 9 6 6 8 10 13 17 18 17 20 23 22 17 12 10 10
16 16 15 16 16 13 12 11 6 4 5 3 0 2 2 3 5 5 5 7 7 6 6 5 5 6 6 8 8 7 6 5 5 7 7 7 7 6 8 12 13 9 6 9 12 11 11 13 16 16 17 23 24 21 23 25 23 22 16 7 6 10 11 13 15 15 11 9 10 13 12 9 8 10 11 10 8 10 15 18 17 17 16 16 17 16 14 8
13 14 13 12 12 10 6 4 3 1 2 3 2 3 5 6 8 9 9 10 10 10 10 9 8 7 8 8 7 6 5 5 6 6 6 8 8 8 11 15 12 8 8 10 11 11 10 11 13 12 11 17 19 18 22 25 24 22 16 10 13 14 8 7 13 16 15 15 15 15 12 10 11 12 11 10 10 9 9 9 7 6 5 5 7 8 8 7
Height
5781 5783 5785 5787 5789 5791 5792 5794 5796 5797 5798 5800 5801 5802 5803 5803 5804 5805 5806 5807 5809 5810 5811 5813 5814 5815 5816 5817 5818 5819 5820 5821 5822 5823 5825 5826 5827 5828 5829 5829 5830 5830 5831 5832 5832 5832 5833 5833 5833 5834 5834 5834 5834 5834 5833 5833 5832 5831 5830 5829 5828 5827 5826 5824 5823 5821 5819 5818 5816 5814 5811 5809 5807 5805 5803 5801 5799 5797 5795 5793 5791 5788 5786 5784 5782 5780 5777 5775
5780 5782 5785 5787 5788 5790 5792 5793 5795 5796 5798 5799 5800 5801 5802 5803 5804 5805 5806 5807 5808 5810 5812 5813 5814 5816 5817 5818 5819 5820 5821 5822 5824 5825 5826 5828 5828 5829 5829 5830 5830 5831 5832 5832 5833 5833 5834 5834 5835 5835 5835 5835 5834 5834 5833 5833 5832 5831 5830 5829 5828 5827 5826 5824 5823 5821 5819 5817 5815 5813 5811 5809 5807 5805 5803 5801 5798 5796 5794 5792 5789 5787 5785 5783 5781 5778 5776 5774
5780 5782 5785 5787 5788 5790 5792 5793 5794 5796 5797 5798 5799 5800 5801 5802 5803 5804 5805 5807 5809 5810 5812 5813 5815 5816 5817 5819 5820 5821 5822 5824 5825 5826 5828 5828 5829 5829 5830 5830 5831 5832 5833 5833 5834 5835 5835 5836 5836 5836 5836 5835 5835 5834 5834 5833 5832 5831 5830 5829 5828 5827 5825 5824 5822 5820 5819 5817 5815 5813 5811 5808 5807 5804 5802 5800 5797 5795 5793 5790 5788 5786 5784 5781 5779 5777 5774 5772
5781 5783 5785 5787 5788 5790 5791 5793 5794 5796 5797 5798 5799 5800 5801 5802 5802 5803 5805 5807 5809 5810 5812 5814 5815 5817 5818 5819 5821 5822 5823 5825 5826 5827 5828 5829 5829 5830 5830 5831 5832 5833 5834 5835 5835 5836 5836 5837 5837 5836 5836 5836 5835 5835 5834 5833 5832 5831 5831 5829 5828 5826 5825 5824 5822 5820 5818 5816 5814 5812 5810 5808 5806 5804 5801 5799 5796 5794 5792 5789 5787 5785 5782 5780 5777 5775 5773 5770
5782 5784 5786 5787 5789 5790 5792 5793 5794 5796 5797 5798 5799 5799 5800 5801 5802 5803 5805 5807 5809 5811 5813 5815 5816 5818 5819 5820 5822 5823 5824 5826 5827 5828 5829 5829 5830 5830 5831 5832 5833 5834 5835 5836 5837 5837 5837 5837 5837 5837 5836 5836 5835 5835 5834 5833 5832 5832 5831 5829 5828 5826 5825 5823 5822 5820 5818 5816 5814 5811 5809 5807 5805 5803 5800 5798 5796 5793 5791 5788 5786 5783 5781 5778 5776 5773 5770 5768
5784 5785 5787 5788 5790 5791 5793 5794 5795 5796 5797 5798 5799 5799 5800 5801 5802 5803 5805 5808 5810 5812 5814 5816 5817 5819 5820 5821 5822 5824 5825 5827 5828 5828 5829 5830 5831 5832 5833 5834 5835 5836 5837 5837 5838 5838 5838 5838 5838 5837 5837 5836 5836 5835 5834 5833 5832 5831 5830 5829 5827 5826 5825 5823 5821 5819 5817 5815 5813 5811 5809 5806 5804 5802 5799 5797 5795 5792 5790 5787 5785 5782 5780 5777 5774 5771 5769 5766
5785 5787 5788 5790 5791 5792 5793 5794 5795 5796 5797 5798 5799 5799 5800 5801 5802 5803 5805 5808 5811 5813 5815 5817 5818 5820 5821 5822 5824 5825 5826 5827 5828 5829 5831 5832 5833 5834 5835 5836 5837 5838 5838 5838 5839 5839 5839 5839 5838 5838 5837 5837 5836 5835 5834 5833 5832 5831 5830 5829 5827 5826 5824 5822 5820 5818 5816 5814 5812 5810 5808 5805 5803 5801 5798 5796 5793 5791 5788 5786 5784 5781 5778 5775 5773 5770 5767 5765
5787 5789 5790 5791 5792 5793 5794 5795 5796 5797 5797 5798 5798 5799 5800 5801 5802 5803 5805 5809 5812 5814 5816 5818 5819 5821 5822 5823 5825 5826 5827 5828 5830 5831 5833 5834 5835 5836 5837 5838 5838 5839 5839 5839 5839 5839 5839 5839 5839 5838 5838 5837 5836 5835 5834 5833 5832 5831 5830 5828 5827 5825 5824 5822 5820 5818 5816 5813 5811 5809 5806 5804 5802 5799 5797 5795 5792 5790 5787 5785 5782 5779 5776 5773 5771 5768 5766 5763
5789 5790 5792 5793 5794 5795 5796 5796 5797 5797 5798 5798 5799 5799 5800 5801 5803 5805 5807 5810 5813 5816 5817 5819 5821 5822 5824 5825 5826 5828 5829 5830 5832 5833 5835 5836 5837 5838 5839 5839 5839 5839 5840 5840 5840 5840 5840 5840 5839 5838 5838 5837 5836 5835 5834 5833 5832 5831 5829 5828 5826 5825 5823 5821 5819 5817 5815 5813 5810 5808 5805 5803 5801 5798 5796 5793 5791 5788 5786 5783 5780 5777 5774 5771 5769 5767 5764 5762
5792 5793 5794 5795 5796 5796 5797 5798 5798 5799 5799 5800 5800 5800 5801 5802 5804 5807 5810 5812 5815 5817 5819 5821 5823 5824 5826 5827 5829 5830 5832 5833 5834 5836 5837 5838 5839 5839 5840 5840 5840 5840 5840 5841 5840 5840 5840 5840 5839 5839 5838 5837 5837 5836 5834 5833 5832 5830 5829 5827 5826 5824 5822 5820 5818 5816 5814 5812 5809 5807 5804 5802 5800 5797 5795 5792 5790 5787 5784 5781 5778 5775 5773 5770 5768 5765 5763 5760
5794 5795 5796 5797 5797 5798 5799 5800 5800 5801 5801 5802 5802 5803 5804 5805 5807 5810 5813 5815 5817 5819 5821 5823 5825 5826 5828 5830 5831 5833 5834 5835 5836 5837 5838 5839 5840 5840 5841 5841 5841 5841 5841 5841 5841 5841 5840 5840 5839 5839 5838 5838 5837 5836 5834 5833 5832 5830 5829 5827 5825 5823 5821 5819 5817 5815 5813 5811 5808 5806 5804 5801 5799 5796 5794 5791 5789 5786 5783 5780 5777 5774 5772 5769 5767 5764 5762 5759
5796 5797 5798 5799 5800 5800 5801 5802 5802 5803 5804 5805 5805 5806 5807 5809 5811 5814 5816 5818 5820 5822 5824 5825 5827 5829 5830 5832 5833 5835 5836 5837 5838 5839 5840 5841 5841 5841 5842 5842 5842 5842 5842 5842 5842 5841 5840 5840 5839 5839 5838 5838 5837 5836 5834 5833 5831 5830 5828 5826 5824 5822 5820 5818 5816 5814 5812 5810 5808 5805 5803 5800 5798 5795 5793 5790 5787 5784 5781 5778 5775 5773 5770 5768 5765 5763 5760 5757
5799 5800 5801 5802 5802 5803 5804 5804 5805 5806 5807 5808 5809 5810 5811 5813 5815 5817 5819 5821 5823 5824 5826 5828 5829 5831 5832 5834 5836 5837 5838 5839 5840 5841 5841 5842 5842 5842 5842 5843 5843 5843 5842 5842 5842 5842 5841 5841 5840 5839 5839 5838 5837 5836 5834 5833 5831 5830 5828 5825 5823 5821 5819 5818 5815 5813 5811 5809 5807 5804 5802 5800 5797 5794 5792 5789 5785 5782 5779 5777 5774 5772 5769 5767 5764 5761 5758 5756
5802 5803 5804 5805 5805 5806 5807 5808 5808 5809 5810 5811 5813 5814 5815 5817 5819 5820 5822 5824 5825 5827 5828 5830 5832 5833 5835 5837 5838 5839 5840 5841 5842 5842 5843 5843 5843 5843 5844 5843 5843 5843 5843 5843 5842 5842 5841 5841 5840 5839 5838 5837 5837 5836 5834 5832 5831 5829 5827 5825 5823 5820 5819 5817 5815 5812 5810 5808 5806 5803 5801 5798 5796 5793 5790 5787 5784 5781 5778 5776 5773 5771 5768 5765 5762 5759 5756 5753
5805 5806 5806 5807 5808 5809 5810 5811 5812 5813 5814 5815 5816 5817 5819 5820 5822 5824 5826 5827 5829 5830 5831 5833 5834 5836 5838 5839 5840 5841 5842 5843 5843 5843 5844 5844 5844 5844 5844 5844 5844 5844 5843 5843 5843 5842 5842 5841 5840 5839 5838 5837 5837 5835 5833 5832 5830 5828 5826 5824 5822 5820 5818 5816 5814 5812 5809 5807 5804 5802 5799 5796 5794 5791 5788 5785 5783 5780 5777 5775 5772 5769 5766 5763 5760 5757 5754 5751
5808 5809 5810 5811 5812 5812 5813 5814 5815 5816 5817 5818 5819 5821 5822 5824 5826 5827 5829 5830 5832 5833 5835 5836 5837 5839 5840 5841 5842 5843 5843 5844 5844 5845 5845 5845 5845 5845 5845 5845 5845 5844 5844 5844 5843 5843 5842 5841 5840 5839 5838 5837 5836 5834 5833 5831 5829 5827 5825 5823 5821 5819 5817 5815 5813 5810 5808 5805 5803 5800 5798 5795 5792 5789 5787 5784 5782 5779 5776 5773 5770 5767 5764 5760 5757 5754 5751 5748
5811 5812 5813 5814 5815 5816 5816 5817 5818 5819 5820 5822 5823 5824 5826 5828 5829 5831 5832 5834 5835 5837 5838 5839 5840 5842 5842 5842 5843 5844 5845 5845 5846 5846 5846 5846 5846 5846 5846 5845 5845 5845 5844 5844 5843 5843 5842 5841 5840 5839 5838 5836 5835 5834 5832 5830 5828 5826 5824 5822 5820 5818 5816 5814 5812 5809 5807 5804 5801 5799 5796 5794 5791 5788 5786 5783 5780 5777 5774 5771 5768 5765 5762 5758 5755 5752 5749 5746
5815 5816 5816 5817 5818 5819 5820 5821 5822 5823 5824 5825 5826 5828 5829 5831 5833 5834 5836 5837 5839 5840 5841 5841 5843 5844 5843 5844 5845 5846 5846 5847 5847 5847 5847 5847 5847 5847 5847 5846 5846 5845 5845 5844 5843 5843 5842 5841 5839 5838 5837 5836 5834 5833 5831 5829 5827 5825 5823 5821 5819 5817 5815 5812 5810 5808 5805 5803 5800 5797 5795 5792 5789 5787 5784 5781 5778 5775 5772 5769 5766 5763 5760 5756 5753 5750 5747 5743
5818 5819 5820 5821 5822 5823 5825 5825 5826 5827 5828 5829 5830 5831 5833 5835 5837 5838 5840 5841 5842 5843 5843 5844 5844 5845 5845 5846 5847 5847 5848 5848 5848 5848 5848 5848 5848 5848 5847 5847 5847 5846 5845 5844 5843 5842 5841 5840 5839 5838 5836 5835 5833 5832 5830 5828 5826 5824 5822 5820 5818 5816 5813 5811 5809 5806 5804 5801 5799 5796 5792 5790 5788 5784 5782 5779 5776 5773 5770 5767 5764 5761 5758 5754 5751 5748 5744 5741
5822 5823 5825 5826 5827 5828 5829 5830 5831 5831 5832 5833 5834 5835 5836 5837 5839 5841 5843 5844 5845 5846 5846 5846 5846 5847 5847 5848 5849 5849 5849 5849 5849 5849 5849 5849 5849 5849 5848 5848 5847 5846 5845 5844 5843 5842 5841 5840 5839 5837 5836 5834 5832 5830 5829 5827 5825 5823 5821 5818 5816 5814 5812 5810 5807 5804 5802 5799 5797 5794 5790 5787 5785 5782 5779 5776 5773 5771 5768 5765 5762 5758 5755 5752 5749 5745 5742 5738
5826 5827 5828 5830 5831 5832 5833 5834 5835 5836 5837 5838 5839 5839 5839 5840 5842 5843 5844 5846 5847 5848 5848 5848 5848 5849 5849 5850 5850 5851 5851 5851 5850 5850 5850 5850 5850 5849 5848 5848 5847 5846 5845 5844 5843 5842 5840 5839 5838 5836 5835 5833 5831 5829 5827 5825 5823 5821 5819 5817 5814 5812 5810 5808 5805 5802 5800 5797 5794 5792 5789 5785 5783 5780 5777 5773 5771 5768 5765 5762 5759 5755 5752 5749 5746 5742 5738 5735
5830 5831 5832 5833 5835 5836 5837 5838 5839 5840 5841 5842 5843 5843 5843 5844 5845 5844 5846 5849 5850 5850 5850 5850 5850 5851 5851 5852 5852 5852 5852 5852 5852 5851 5851 5850 5850 5849 5849 5848 5847 5846 5845 5844 5843 5841 5840 5839 5837 5835 5833 5831 5830 5828 5826 5824 5822 5819 5817 5815 5813 5810 5808 5805 5803 5800 5798 5795 5792 5790 5788 5784 5780 5778 5775 5771 5768 5765 5762 5759 5756 5752 5749 5745 5742 5739 5735 5731
5834 5835 5836 5837 5838 5840 5841 5842 5843 5844 5845 5846 5847 5847 5847 5847 5847 5847 5849 5851 5852 5851 5852 5852 5852 5853 5853 5853 5853 5853 5853 5853 5853 5852 5852 5851 5850 5849 5849 5848 5847 5846 5845 5844 5842 5841 5839 5838 5836 5834 5832 5830 5828 5826 5824 5822 5820 5818 5815 5813 5810 5808 5805 5803 5800 5798 5795 5793 5790 5788 5786 5782 5777 5775 5772 5769 5766 5763 5760 5756 5753 5749 5745 5742 5738 5735 5732 5728
5838 5839 5839 5840 5842 5843 5844 5845 5846 5847 5848 5849 5850 5850 5850 5850 5850 5850 5851 5852 5853 5853 5853 5854 5854 5854 5854 5854 5854 5854 5854 5854 5854 5853 5852 5851 5850 5850 5849 5848 5847 5846 5844 5843 5842 5840 5838 5836 5834 5832 5830 5828 5826 5824 5822 5820 5818 5815 5813 5810 5808 5805 5803 5800 5798 5795 5793 5790 5787 5784 5783 5781 5775 5771 5770 5766 5763 5760 5756 5753 5749 5746 5742 5738 5735 5731 5728 5724
5842 5842 5843 5844 5845 5846 5848 5848 5849 5850 5850 5851 5852 5853 5853 5852 5852 5852 5853 5854 5855 5855 5855 5855 5855 5855 5855 5855 5855 5855 5855 5855 5854 5853 5852 5851 5851 5850 5849 5848 5847 5845 5844 5842 5840 5838 5837 5835 5833 5831 5829 5826 5824 5822 5820 5818 5815 5813 5811 5808 5805 5803 5800 5798 5795 5792 5790 5787 5784 5780 5779 5778 5773 5768 5766 5764 5760 5756 5753 5750 5746 5742 5739 5735 5732 5728 5724 5720
5845 5846 5847 5848 5849 5850 5851 5851 5852 5853 5853 5854 5854 5855 5855 5854 5854 5854 5855 5855 5856 5856 5856 5856 5856 5856 5856 5856 5856 5856 5855 5855 5854 5853 5852 5852 5851 5850 5849 5847 5846 5844 5842 5841 5839 5837 5835 5833 5831 5829 5827 5825 5822 5820 5818 5815 5813 5810 5808 5805 5803 5800 5797 5795 5792 5789 5786 5783 5780 5777 5774 5774 5772 5765 5762 5760 5756 5753 5749 5746 5743 5739 5735 5732 5728 5724 5720 5716
5849 5850 5850 5851 5852 5853 5853 5854 5855 5855 5856 5856 5856 5856 5856 5856 5856 5857 5857 5857 5858 5857 5858 5858 5858 5858 5858 5857 5857 5856 5856 5855 5854 5853 5852 5851 5850 5849 5848 5846 5844 5843 5841 5839 5837 5835 5833 5831 5829 5827 5825 5822 5820 5818 5815 5813 5810 5808 5805 5803 5800 5797 5794 5792 5789 5785 5783 5780 5777 5774 5770 5769 5768 5763 5759 5757 5753 5749 5746 5742 5739 5735 5732 5728 5724 5720 5716 5712
5852 5853 5854 5854 5855 5855 5856 5856 5857 5857 5858 5858 5858 5858 5858 5858 5858 5858 5859 5859 5859 5859 5859 5859 5859 5859 5859 5858 5858 5857 5856 5855 5854 5853 5852 5850 5849 5848 5846 5845 5843 5841 5839 5837 5835 5833 5831 5829 5827 5825 5822 5820 5817 5815 5812 5810 5807 5805 5802 5800 5797 5794 5791 5788 5785 5782 5780 5777 5773 5771 5767 5765 5763 5758 5755 5754 5750 5746 5743 5739 5735 5732 5728 5724 5720 5716 5711 5707
5855 5856 5856 5857 5857 5857 5858 5858 5859 5859 5859 5860 5860 5860 5860 5860 5860 5860 5860 5860 5860 5860 5860 5860 5860 5859 5859 5858 5857 5857 5855 5854 5853 5852 5851 5849 5848 5846 5845 5843 5841 5840 5838 5836 5834 5831 5829 5827 5824 5822 5819 5817 5814 5812 5809 5807 5804 5801 5799 5796 5793 5791 5788 5785 5782 5779 5776 5773 5770 5768 5764 5761 5759 5755 5750 5748 5746 5742 5738 5735 5731 5727 5723 5719 5715 5711 5707 5703
5858 5858 5859 5859 5859 5860 5860 5860 5861 5861 5861 5861 5861 5861 5862 5862 5862 5862 5862 5861 5861 5861 5860 5860 5860 5859 5859 5858 5857 5856 5854 5853 5852 5851 5850 5848 5847 5845 5843 5842 5840 5838 5836 5834 5832 5829 5827 5824 5822 5819 5816 5814 5811 5809 5806 5803 5801 5798 5795 5793 5790 5787 5784 5781 5779 5775 5772 5770 5767 5765 5761 5756 5754 5751 5746 5743 5741 5738 5734 5730 5726 5723 5719 5714 5710 5706 5702 5698
5860 5860 5861 5861 5861 5862 5862 5862 5862 5863 5863 5863 5863 5863 5863 5863 5863 5863 5862 5862 5861 5861 5861 5860 5860 5859 5858 5857 5856 5855 5854 5853 5851 5850 5848 5847 5845 5843 5841 5840 5838 5836 5834 5831 5829 5826 5824 5821 5819 5816 5813 5811 5808 5805 5803 5800 5797 5794 5791 5788 5786 5783 5780 5777 5775 5772 5769 5767 5764 5761 5758 5753 5750 5746 5742 5739 5736 5733 5730 5726 5722 5718 5714 5710 5705 5701 5697 5693
5862 5863 5863 5863 5863 5864 5864 5864 5864 5864 5864 5864 5864 5864 5864 5864 5864 5863 5863 5862 5862 5861 5861 5860 5859 5858 5857 5856 5855 5854 5853 5851 5850 5848 5847 5845 5843 5841 5839 5837 5835 5833 5831 5829 5827 5824 5821 5818 5815 5813 5810 5807 5804 5802 5799 5796 5793 5790 5787 5784 5781 5778 5775 5773 5771 5768 5765 5763 5760 5757 5754 5751 5747 5741 5737 5735 5731 5728 5724 5721 5718 5715 5711 5706 5702 5697 5692 5689
5864 5864 5865 5865 5865 5865 5865 5865 5865 5865 5865 5865 5865 5865 5865 5865 5864 5864 5863 5862 5862 5861 5860 5859 5859 5858 5856 5855 5854 5853 5851 5850 5848 5846 5845 5843 5841 5839 5837 5835 5832 5830 5828 5826 5824 5822 5819 5816 5813 5810 5807 5804 5801 5798 5795 5793 5790 5787 5783 5780 5777 5773 5770 5768 5766 5764 5762 5759 5756 5754 5749 5747 5744 5737 5732 5730 5727 5723 5720 5715 5712 5710 5707 5703 5698 5693 5689 5685
5866 5866 5867 5867 5867 5867 5867 5866 5866 5866 5866 5866 5866 5866 5865 5865 5864 5864 5863 5862 5861 5861 5860 5859 5858 5857 5855 5854 5853 5851 5850 5848 5846 5845 5843 5841 5838 5836 5834 5832 5830 5828 5825 5823 5821 5818 5816 5813 5810 5807 5804 5801 5798 5794 5792 5789 5786 5783 5780 5777 5773 5770 5766 5763 5761 5758 5757 5755 5753 5751 5746 5743 5740 5732 5726 5725 5721 5718 5715 5710 5706 5704 5702 5698 5694 5689 5685 5681
5868 5868 5868 5868 5868 5868 5868 5868 5867 5867 5867 5867 5866 5866 5866 5865 5864 5863 5863 5862 5861 5860 5859 5858 5857 5856 5854 5853 5851 5850 5848 5846 5845 5843 5840 5838 5836 5834 5832 5829 5827 5825 5822 5820 5818 5815 5813 5810 5806 5804 5801 5798 5795 5791 5788 5785 5783 5780 5777 5773 5770 5767 5762 5759 5756 5753 5751 5749 5749 5748 5744 5741 5737 5728 5721 5718 5716 5713 5709 5705 5700 5697 5695 5693 5690 5685 5680 5676
5869 5870 5870 5869 5869 5869 5869 5869 5868 5868 5868 5867 5867 5866 5866 5865 5864 5863 5862 5861 5861 5860 5858 5857 5856 5855 5853 5852 5850 5848 5846 5844 5843 5840 5838 5836 5834 5831 5829 5826 5824 5822 5819 5817 5814 5812 5811 5807 5804 5801 5798 5795 5792 5789 5786 5782 5779 5776 5773 5770 5766 5762 5759 5754 5751 5749 5745 5742 5743 5743 5740 5739 5737 5728 5719 5714 5710 5707 5703 5699 5695 5691 5689 5687 5684 5680 5675 5671
5871 5871 5871 5870 5870 5870 5870 5869 5869 5869 5868 5867 5867 5866 5865 5864 5863 5863 5862 5861 5860 5858 5857 5856 5855 5853 5852 5850 5848 5846 5845 5843 5841 5839 5836 5834 5831 5829 5826 5824 5821 5819 5816 5814 5811 5809 5807 5805 5802 5798 5795 5792 5789 5786 5783 5779 5776 5772 5769 5765 5761 5757 5754 5749 5745 5743 5740 5735 5736 5738 5736 5734 5734 5729 5721 5713 5706 5702 5698 5693 5689 5685 5683 5681 5678 5675 5671 5667
5871 5871 5871 5871 5871 5870 5870 5870 5869 5869 5868 5867 5866 5866 5865 5864 5863 5862 5861 5860 5859 5857 5856 5855 5853 5852 5850 5849 5847 5845 5843 5841 5839 5836 5834 5832 5829 5826 5824 5821 5818 5816 5813 5810 5808 5805 5803 5802 5800 5796 5791 5789 5786 5782 5779 5776 5772 5768 5765 5761 5756 5752 5748 5745 5741 5737 5733 5729 5727 5731 5732 5731 5730 5725 5717 5709 5704 5699 5695 5690 5685 5680 5677 5675 5673 5670 5667 5663
5872 5872 5871 5871 5871 5870 5870 5869 5869 5868 5867 5867 5866 5865 5864 5863 5862 5861 5860 5859 5857 5856 5855 5853 5852 5850 5849 5847 5845 5843 5841 5838 5836 5834 5831 5829 5826 5823 5821 5818 5815 5812 5809 5807 5804 5801 5798 5796 5796 5793 5788 5784 5782 5778 5775 5772 5768 5764 5761 5756 5752 5748 5743 5740 5737 5732 5728 5722 5719 5720 5724 5727 5727 5720 5710 5704 5700 5695 5690 5686 5683 5678 5674 5670 5667 5665 5662 5658
5872 5872 5872 5871 5871 5870 5870 5869 5868 5868 5867 5866 5865 5864 5863 5862 5861 5860 5859 5857 5856 5855 5853 5852 5850 5849 5847 5845 5843 5840 5838 5836 5833 5831 5828 5826 5823 5820 5817 5814 5812 5808 5806 5803 5799 5797 5794 5791 5790 5789 5785 5780 5777 5773 5770 5767 5763 5760 5757 5752 5747 5742 5737 5733 5731 5729 5723 5717 5713 5711 5712 5720 5723 5713 5703 5699 5694 5689 5683 5680 5679 5675 5670 5667 5663 5659 5655 5651
5872 5872 5872 5871 5871 5870 5869 5869 5868 5867 5866 5865 5864 5863 5862 5861 5860 5859 5858 5856 5855 5853 5852 5850 5848 5847 5845 5842 5840 5838 5835 5833 5830 5828 5825 5822 5820 5817 5814 5811 5808 5804 5801 5799 5795 5792 5789 5786 5784 5783 5780 5776 5773 5769 5765 5762 5759 5755 5752 5748 5743 5737 5731 5725 5723 5723 5719 5714 5710 5704 5701 5712 5717 5705 5697 5693 5688 5683 5677 5673 5673 5671 5666 5663 5659 5654 5649 5645
5872 5872 5872 5871 5870 5870 5869 5868 5867 5866 5866 5865 5864 5863 5861 5860 5859 5858 5856 5855 5853 5852 5850 5848 5846 5844 5842 5840 5838 5835 5833 5830 5828 5825 5822 5819 5816 5814 5810 5807 5804 5800 5797 5794 5790 5787 5783 5780 5778 5777 5775 5771 5767 5763 5760 5756 5753 5750 5746 5742 5738 5732 5726 5719 5715 5714 5713 5710 5706 5698 5694 5704 5709 5699 5690 5686 5681 5677 5672 5666 5666 5665 5661 5657 5653 5649 5645 5640
5872 5872 5872 5871 5870 5869 5869 5868 5867 5866 5865 5864 5863 5862 5860 5859 5858 5856 5855 5853 5851 5850 5848 5846 5844 5842 5840 5837 5835 5833 5830 5828 5825 5822 5820 5816 5813 5810 5807 5803 5800 5796 5792 5789 5785 5782 5778 5774 5770 5770 5770 5767 5763 5759 5754 5750 5748 5745 5741 5736 5732 5726 5720 5715 5710 5707 5706 5704 5700 5692 5687 5694 5700 5693 5685 5680 5675 5673 5668 5661 5659 5657 5655 5652 5648 5644 5640 5636
5872 5872 5871 5871 5870 5869 5868 5867 5866 5865 5864 5863 5862 5860 5859 5857 5856 5854 5853 5851 5849 5847 5845 5843 5842 5840 5837 5835 5833 5831 5828 5826 5823 5820 5817 5814 5811 5807 5803 5800 5796 5792 5788 5785 5781 5777 5774 5768 5762 5760 5759 5758 5756 5752 5747 5744 5742 5739 5735 5729 5724 5720 5714 5709 5705 5701 5699 5698 5695 5687 5680 5683 5689 5686 5680 5676 5672 5669 5665 5659 5654 5651 5649 5646 5643 5640 5636 5631
5872 5872 5871 5870 5869 5868 5867 5866 5865 5864 5863 5861 5860 5858 5857 5855 5854 5852 5850 5849 5847 5845 5844 5842 5840 5838 5836 5833 5831 5829 5826 5824 5821 5818 5815 5811 5808 5804 5800 5796 5792 5788 5784 5780 5776 5773 5769 5764 5759 5754 5751 5747 5745 5742 5739 5737 5736 5734 5729 5723 5718 5715 5710 5705 5701 5697 5693 5691 5690 5685 5675 5674 5681 5679 5675 5673 5669 5665 5662 5657 5651 5647 5644 5640 5637 5634 5631 5627
5872 5871 5870 5869 5868 5867 5866 5865 5864 5862 5861 5860 5858 5856 5855 5854 5852 5851 5849 5847 5846 5844 5843 5841 5839 5837 5835 5832 5830 5827 5825 5822 5819 5816 5812 5809 5805 5802 5797 5793 5788 5784 5780 5776 5772 5769 5766 5761 5757 5753 5749 5744 5740 5738 5734 5731 5730 5729 5725 5718 5713 5711 5707 5703 5699 5695 5689 5685 5685 5682 5673 5670 5673 5671 5669 5669 5664 5660 5657 5652 5647 5644 5639 5635 5632 5629 5625 5621
5871 5870 5869 5868 5867 5866 5865 5864 5862 5861 5859 5858 5857 5855 5854 5853 5851 5850 5848 5847 5845 5843 5841 5839 5838 5835 5833 5831 5828 5826 5823 5820 5816 5813 5810 5806 5803 5798 5794 5790 5786 5781 5777 5772 5768 5764 5762 5758 5754 5751 5749 5743 5737 5734 5732 5728 5726 5724 5719 5713 5709 5707 5703 5700 5697 5692 5686 5680 5677 5677 5673 5668 5666 5664 5662 5661 5658 5654 5650 5645 5641 5638 5634 5630 5626 5623 5620 5616
5870 5869 5868 5867 5866 5865 5863 5862 5861 5860 5858 5857 5856 5855 5853 5852 5851 5849 5848 5846 5844 5842 5840 5838 5836 5834 5831 5829 5826 5823 5821 5818 5814 5811 5807 5804 5800 5796 5791 5787 5783 5778 5774 5769 5764 5760 5758 5754 5750 5748 5747 5741 5734 5731 5729 5726 5723 5720 5715 5709 5705 5703 5699 5697 5693 5688 5683 5677 5672 5671 5670 5667 5662 5658 5657 5655 5651 5647 5642 5636 5633 5630 5627 5623 5619 5617 5614 5610
5869 5868 5867 5866 5865 5863 5862 5861 5860 5859 5858 5857 5856 5854 5853 5852 5850 5848 5847 5845 5843 5841 5838 5836 5834 5831 5829 5826 5823 5820 5817 5815 5812 5808 5804 5800 5796 5792 5788 5783 5779 5774 5770 5766 5761 5756 5753 5750 5746 5744 5743 5739 5732 5728 5726 5722 5719 5717 5712 5705 5701 5698 5695 5692 5689 5685 5679 5674 5669 5665 5664 5662 5658 5653 5651 5649 5645 5641 5635 5628 5625 5623 5619 5615 5612 5609 5606 5602
5868 5867 5866 5865 5864 5863 5862 5861 5860 5859 5858 5856 5855 5854 5852 5851 5849 5847 5845 5843 5841 5839 5836 5834 5831 5829 5826 5823 5820 5817 5814 5811 5807 5804 5801 5797 5792 5788 5784 5779 5775 5770 5766 5762 5758 5753 5750 5746 5742 5739 5738 5735 5730 5726 5723 5718 5714 5712 5708 5701 5697 5694 5691 5688 5686 5682 5676 5669 5665 5661 5658 5656 5654 5649 5645 5643 5640 5636 5629 5621 5617 5616 5613 5608 5604 5601 5598 5595
5867 5866 5865 5865 5864 5863 5862 5861 5859 5858 5857 5856 5854 5853 5851 5850 5848 5846 5844 5841 5839 5837 5834 5832 5829 5826 5824 5821 5818 5814 5811 5808 5804 5800 5796 5793 5789 5784 5780 5776 5772 5768 5764 5760 5756 5751 5747 5743 5739 5735 5733 5730 5726 5722 5719 5715 5711 5707 5702 5697 5693 5689 5686 5685 5683 5678 5671 5664 5661 5658 5653 5650 5647 5643 5640 5638 5636 5632 5624 5615 5610 5609 5607 5602 5597 5593 5591 5588
5867 5866 5865 5864 5863 5862 5861 5860 5859 5858 5857 5855 5853 5852 5850 5848 5846 5844 5841 5839 5837 5834 5832 5829 5826 5824 5821 5818 5815 5811 5808 5805 5801 5797 5793 5789 5785 5781 5777 5773 5769 5765 5762 5758 5754 5749 5745 5740 5736 5732 5729 5727 5723 5718 5715 5711 5707 5702 5695 5691 5688 5685 5682 5682 5681 5675 5667 5661 5657 5653 5649 5645 5642 5637 5634 5632 5631 5626 5619 5610 5603 5601 5600 5597 5592 5587 5583 5580